Meteo pe oră la Dziewiate

Astăzi, 2 Martie, Marţi

Timp Temperatura Precipitaţii Vânt Presiune Umiditate
00:00 +2°C° 0 mm 2 m/s 766 mmHg 92%
01:00 +1°C° 0 mm 2 m/s 766 mmHg 93%
02:00 +1°C° 0 mm 2 m/s 766 mmHg 93%
03:00 +1°C° 0 mm 2 m/s 766 mmHg 93%
04:00 +1°C° 0 mm 2 m/s 765 mmHg 93%
05:00 +1°C° 0 mm 2 m/s 766 mmHg 93%
06:00 +1°C° 0 mm 2 m/s 766 mmHg 93%
07:00 +1°C° 0 mm 2 m/s 766 mmHg 93%
08:00 +3°C° 0 mm 2 m/s 766 mmHg 86%
09:00 +5°C° 0 mm 2 m/s 766 mmHg 80%
10:00 +5°C° 0 mm 3 m/s 766 mmHg 73%
11:00 +8°C° 0 mm 3 m/s 766 mmHg 68%
12:00 +9°C° 0 mm 3 m/s 766 mmHg 64%
13:00 +10°C° 0 mm 3 m/s 765 mmHg 59%
14:00 +10°C° 0 mm 3 m/s 765 mmHg 60%
15:00 +10°C° 0 mm 2 m/s 765 mmHg 60%
16:00 +10°C° 0 mm 2 m/s 764 mmHg 61%
17:00 +9°C° 0 mm 2 m/s 764 mmHg 65%
18:00 +8°C° 0 mm 2 m/s 765 mmHg 70%
19:00 +7°C° 0 mm 1 m/s 765 mmHg 75%
20:00 +7°C° 0 mm 1 m/s 765 mmHg 76%
21:00 +6°C° 0 mm 1 m/s 765 mmHg 78%
22:00 +5°C° 0 mm 1 m/s 765 mmHg 80%
23:00 +4°C° 0 mm 0 m/s 765 mmHg 80%

Mâine, 3 Martie, Miercuri

Timp Temperatura Precipitaţii Vânt Presiune Umiditate
00:00 +4°C° 0 mm 0 m/s 765 mmHg 81%
01:00 +3°C° 0 mm 0 m/s 765 mmHg 82%
02:00 +3°C° 0 mm 0 m/s 764 mmHg 82%
03:00 +4°C° 0 mm 1 m/s 764 mmHg 82%
04:00 +4°C° 0 mm 1 m/s 763 mmHg 83%
05:00 +4°C° 0 mm 1 m/s 763 mmHg 83%
06:00 +4°C° 0 mm 1 m/s 763 mmHg 84%
07:00 +3°C° 0 mm 1 m/s 763 mmHg 84%
08:00 +5°C° 0 mm 1 m/s 763 mmHg 79%
09:00 +7°C° 0 mm 1 m/s 762 mmHg 73%
10:00 +9°C° 0 mm 1 m/s 762 mmHg 67%
11:00 +10°C° 0 mm 1 m/s 762 mmHg 62%
12:00 +12°C° 0 mm 2 m/s 761 mmHg 57%
13:00 +13°C° 0 mm 2 m/s 761 mmHg 53%
14:00 +13°C° 0 mm 2 m/s 760 mmHg 54%
15:00 +13°C° 0 mm 2 m/s 759 mmHg 55%
16:00 +13°C° 0 mm 2 m/s 758 mmHg 55%
17:00 +12°C° 0 mm 2 m/s 758 mmHg 59%
18:00 +9°C° 0 mm 2 m/s 758 mmHg 63%
19:00 +8°C° 0 mm 3 m/s 758 mmHg 67%
20:00 +7°C° 0 mm 3 m/s 757 mmHg 70%
21:00 +7°C° 0 mm 3 m/s 757 mmHg 73%
22:00 +5°C° 0 mm 4 m/s 756 mmHg 76%
23:00 +5°C° 0 mm 4 m/s 756 mmHg 77%

Poimâine, 4 Martie, Joi

Timp Temperatura Precipitaţii Vânt Presiune Umiditate
00:00 +5°C° 0 mm 4 m/s 755 mmHg 79%
01:00 +5°C° 0 mm 4 m/s 755 mmHg 80%
02:00 +5°C° 0 mm 4 m/s 754 mmHg 82%
03:00 +5°C° 0 mm 4 m/s 754 mmHg 84%
04:00 +3°C° 0 mm 5 m/s 753 mmHg 86%
05:00 +3°C° 0 mm 5 m/s 753 mmHg 88%
06:00 +3°C° 0 mm 5 m/s 753 mmHg 90%
07:00 +3°C° 0 mm 5 m/s 752 mmHg 91%
08:00 +5°C° 0 mm 5 m/s 752 mmHg 86%
09:00 +7°C° 0 mm 6 m/s 752 mmHg 80%
10:00 +8°C° 0 mm 6 m/s 751 mmHg 74%
11:00 +8°C° 0 mm 6 m/s 751 mmHg 68%
12:00 +9°C° 0 mm 6 m/s 751 mmHg 61%
13:00 +10°C° 0 mm 6 m/s 751 mmHg 55%
14:00 +9°C° 0 mm 6 m/s 750 mmHg 58%
15:00 +8°C° 0 mm 6 m/s 750 mmHg 61%
16:00 +8°C° 0 mm 5 m/s 749 mmHg 63%
17:00 +6°C° 0.3 mm 5 m/s 750 mmHg 69%
18:00 +5°C° 0.3 mm 4 m/s 750 mmHg 75%
19:00 +3°C° 0.3 mm 3 m/s 750 mmHg 81%
20:00 +3°C° 0.1 mm 3 m/s 750 mmHg 81%
21:00 +3°C° 0.1 mm 3 m/s 750 mmHg 82%
22:00 +2°C° 0.1 mm 3 m/s 750 mmHg 82%
23:00 +2°C° 0 mm 3 m/s 751 mmHg 84%

5 Martie, Vineri

Timp Temperatura Precipitaţii Vânt Presiune Umiditate
00:00 0°C° 0 mm 4 m/s 751 mmHg 85%
01:00 -1°C° 0 mm 4 m/s 751 mmHg 87%
02:00 -1°C° 0 mm 4 m/s 751 mmHg 83%
03:00 -2°C° 0 mm 4 m/s 751 mmHg 79%
04:00 -2°C° 0 mm 5 m/s 751 mmHg 75%
05:00 -2°C° 0 mm 5 m/s 752 mmHg 76%
06:00 -4°C° 0 mm 5 m/s 752 mmHg 77%
07:00 -4°C° 0 mm 5 m/s 753 mmHg 78%
08:00 -2°C° 0 mm 5 m/s 753 mmHg 71%
09:00 -1°C° 0 mm 5 m/s 754 mmHg 65%
10:00 -1°C° 0 mm 5 m/s 754 mmHg 58%
11:00 0°C° 0 mm 5 m/s 755 mmHg 54%
12:00 +1°C° 0 mm 5 m/s 755 mmHg 50%
13:00 +1°C° 0 mm 5 m/s 755 mmHg 45%
14:00 +1°C° 0.1 mm 4 m/s 755 mmHg 46%
15:00 +1°C° 0.1 mm 4 m/s 756 mmHg 46%
16:00 +1°C° 0.1 mm 4 m/s 756 mmHg 46%
17:00 +1°C° 0.1 mm 4 m/s 756 mmHg 50%
18:00 0°C° 0.1 mm 4 m/s 757 mmHg 53%
19:00 0°C° 0.1 mm 3 m/s 758 mmHg 57%
20:00 -1°C° 0 mm 3 m/s 758 mmHg 61%
21:00 -1°C° 0 mm 3 m/s 759 mmHg 64%
22:00 -2°C° 0 mm 3 m/s 759 mmHg 67%
23:00 -2°C° 0 mm 3 m/s 760 mmHg 70%

6 Martie, Sâmbătă

Timp Temperatura Precipitaţii Vânt Presiune Umiditate
00:00 -4°C° 0 mm 3 m/s 760 mmHg 73%
01:00 -4°C° 0 mm 3 m/s 761 mmHg 75%
02:00 -4°C° 0 mm 3 m/s 761 mmHg 74%
03:00 -4°C° 0 mm 3 m/s 761 mmHg 73%
04:00 -4°C° 0 mm 3 m/s 761 mmHg 71%
05:00 -4°C° 0 mm 3 m/s 762 mmHg 70%
06:00 -4°C° 0 mm 3 m/s 762 mmHg 69%
07:00 -3°C° 0 mm 2 m/s 762 mmHg 67%
08:00 -2°C° 0 mm 3 m/s 763 mmHg 60%
09:00 -1°C° 0 mm 4 m/s 763 mmHg 53%
10:00 0°C° 0 mm 4 m/s 763 mmHg 45%
11:00 +1°C° 0 mm 4 m/s 763 mmHg 42%
12:00 +1°C° 0 mm 5 m/s 763 mmHg 39%
13:00 +2°C° 0 mm 5 m/s 763 mmHg 35%
14:00 +2°C° 0 mm 5 m/s 762 mmHg 36%
15:00 +2°C° 0 mm 5 m/s 762 mmHg 36%
16:00 +2°C° 0 mm 5 m/s 762 mmHg 37%
17:00 0°C° 0 mm 4 m/s 762 mmHg 42%
18:00 -1°C° 0 mm 4 m/s 761 mmHg 47%
19:00 -1°C° 0 mm 3 m/s 761 mmHg 52%
20:00 -2°C° 0 mm 4 m/s 761 mmHg 52%
21:00 -2°C° 0 mm 4 m/s 761 mmHg 53%
22:00 -2°C° 0 mm 5 m/s 761 mmHg 54%
23:00 -2°C° 0 mm 5 m/s 760 mmHg 56%

7 Martie, Duminică

Timp Temperatura Precipitaţii Vânt Presiune Umiditate
00:00 -2°C° 0 mm 5 m/s 760 mmHg 59%
01:00 -3°C° 0 mm 6 m/s 760 mmHg 61%
02:00 -3°C° 0 mm 6 m/s 759 mmHg 63%
03:00 -3°C° 0 mm 6 m/s 759 mmHg 65%
04:00 -3°C° 0 mm 6 m/s 758 mmHg 68%
05:00 -3°C° 0 mm 6 m/s 758 mmHg 70%
06:00 -3°C° 0 mm 7 m/s 758 mmHg 72%
07:00 -3°C° 0 mm 7 m/s 757 mmHg 74%
08:00 -2°C° 0 mm 7 m/s 757 mmHg 73%
09:00 -2°C° 0 mm 7 m/s 757 mmHg 72%
10:00 -2°C° 0 mm 8 m/s 756 mmHg 71%
11:00 -1°C° 0 mm 8 m/s 756 mmHg 68%
12:00 0°C° 0 mm 8 m/s 755 mmHg 64%
13:00 +1°C° 0 mm 8 m/s 755 mmHg 60%
14:00 +2°C° 0 mm 7 m/s 754 mmHg 60%
15:00 +2°C° 0 mm 7 m/s 753 mmHg 60%
16:00 +2°C° 0 mm 7 m/s 753 mmHg 60%
17:00 0°C° 0 mm 7 m/s 752 mmHg 66%
18:00 -1°C° 0 mm 7 m/s 752 mmHg 72%
19:00 -2°C° 0 mm 6 m/s 752 mmHg 78%
20:00 -2°C° 0 mm 7 m/s 752 mmHg 81%
21:00 -2°C° 0 mm 7 m/s 752 mmHg 85%
22:00 -2°C° 0 mm 7 m/s 752 mmHg 88%
23:00 -3°C° 0.4 mm 7 m/s 752 mmHg 88%
Arată mai mult

Formular de consimțământ

Meteoprog și furnizorii noștri de servicii pot stoca și accesa date personale, precum cookies, identificatori de dispozitiv sau alte tehnologii similare pe dispozitivul dumneavoastră și procesa astfel de date pentru a personaliza conținutul și reclamele, dar și pentru a oferi caracteristici de social media și pentru a analiza traficul.

  • Stocarea și/sau accesarea informațiilor pe dispozitivul dumneavoastră

    Cookies, identificatori de dispozitiv sau alte informații pot fi stocate sau accesate pe dispozitiv în scopurile indicate mai sus.

  • Reclame și conținut personalizat, evaluarea reclamelor și a conținutului, informații despre audiențe și dezvoltarea produselor

    Reclamele și conținutul pot fi personalizate pe baza unui profil. Pot fi adăugate date suplimentare pentru a personaliza mai bine reclamele și conținutul. Performanța reclamelor și conținutului poate fi măsurată. Pot fi obținute informații despre utilizatorii care au văzut reclamele și conținutul. Aceste date pot fi utilizate pentru a dezvolta sau îmbunătăți experiența utilizatorilor, sistemele și software-ul.

Dând clic pe ‘Sunt de acord’, permiteți utilizarea cookie-urilor menționate, a identificatorilor de dispozitiv, balizelor web sau altor tehnologii similare. Setările pot fi modificate din browser-ul dispozitivului dumneavoastră.

În anumite scopuri, interesele legitime pot prima asupra consimțământului. Puteți citi mai multe informații în acest sens în Politica privind Confidențialitatea Datelor și Cookie.